TimeEST,TemperatureF,Dew PointF,Humidity,Sea Level PressureIn,VisibilityMPH,Wind Direction,Wind SpeedMPH,Gust SpeedMPH,PrecipitationIn,Events,Conditions,WindDirDegrees,DateUTC
12:58 AM,15.8,7.3,69,30.29,10.0,SW,11.5,-,N/A,,Clear,230,2013-12-13 05:58:00
1:58 AM,15.4,7.7,71,30.27,10.0,SSW,6.9,-,N/A,,Clear,210,2013-12-13 06:58:00
2:58 AM,18.9,9.5,67,30.26,10.0,SW,8.1,-,N/A,,Overcast,220,2013-12-13 07:58:00
3:58 AM,18.9,9.3,66,30.26,10.0,SW,8.1,-,N/A,,Partly Cloudy,220,2013-12-13 08:58:00
4:58 AM,16.5,9.3,73,30.24,10.0,SSW,4.6,-,N/A,,Clear,200,2013-12-13 09:58:00
5:58 AM,14.9,10.4,82,30.23,10.0,SSW,6.9,-,N/A,,Scattered Clouds,200,2013-12-13 10:58:00
6:58 AM,15.1,10.8,83,30.25,10.0,SSW,6.9,-,N/A,,Clear,200,2013-12-13 11:58:00
7:58 AM,15.4,11.5,84,30.25,10.0,SSW,4.6,-,N/A,,Clear,210,2013-12-13 12:58:00
8:58 AM,18.0,13.3,82,30.25,10.0,South,4.6,-,N/A,,Clear,190,2013-12-13 13:58:00
9:58 AM,23.2,14.5,70,30.25,10.0,SW,6.9,-,N/A,,Clear,230,2013-12-13 14:58:00
10:29 AM,24.8,15.8,69,30.20,10.0,SW,6.9,-,N/A,,Partly Cloudy,230,2013-12-13 15:29:00
10:58 AM,27.0,15.6,62,30.25,10.0,SW,6.9,-,N/A,,Scattered Clouds,220,2013-12-13 15:58:00
11:58 AM,32.4,17.2,54,30.23,10.0,SW,5.8,-,N/A,,Overcast,220,2013-12-13 16:58:00
12:58 PM,35.2,18.0,49,30.17,10.0,South,8.1,-,N/A,,Scattered Clouds,180,2013-12-13 17:58:00
1:58 PM,39.0,19.4,45,30.16,10.0,South,5.8,-,N/A,,Scattered Clouds,190,2013-12-13 18:58:00
2:58 PM,37.6,20.8,51,30.15,10.0,South,10.4,-,N/A,,Clear,180,2013-12-13 19:58:00
3:58 PM,35.1,21.0,57,30.14,10.0,SE,6.9,-,N/A,,Partly Cloudy,140,2013-12-13 20:58:00
4:58 PM,32.0,22.1,67,30.15,10.0,ESE,10.4,-,N/A,,Clear,120,2013-12-13 21:58:00
5:58 PM,30.7,22.8,72,30.17,10.0,SE,10.4,-,N/A,,Overcast,140,2013-12-13 22:58:00
6:58 PM,30.4,22.8,73,30.18,10.0,SSE,10.4,-,N/A,,Overcast,160,2013-12-13 23:58:00
7:58 PM,30.6,22.6,72,30.18,10.0,SSE,11.5,-,N/A,,Partly Cloudy,160,2013-12-14 00:58:00
8:55 PM,32.0,23.0,69,30.13,10.0,South,6.9,-,N/A,Snow,Light Snow,180,2013-12-14 01:55:00
8:58 PM,31.1,23.4,73,30.18,10.0,South,8.1,-,0.00,Snow,Light Snow,180,2013-12-14 01:58:00
9:06 PM,32.0,26.6,80,30.13,6.0,South,9.2,-,N/A,Snow,Light Snow,180,2013-12-14 02:06:00
9:11 PM,30.2,28.4,93,30.13,4.0,South,8.1,-,N/A,Snow,Light Snow,190,2013-12-14 02:11:00
9:16 PM,30.2,30.2,100,30.13,3.0,South,4.6,-,N/A,Snow,Light Snow,180,2013-12-14 02:16:00
9:26 PM,28.4,28.4,100,30.12,2.0,South,3.5,-,N/A,Snow,Light Snow,170,2013-12-14 02:26:00
9:31 PM,28.4,28.4,100,30.12,1.8,South,4.6,-,N/A,Snow,Light Snow,170,2013-12-14 02:31:00
9:36 PM,28.4,28.4,100,30.12,2.0,South,3.5,-,N/A,Snow,Light Snow,170,2013-12-14 02:36:00
9:58 PM,28.8,28.8,100,30.15,1.2,ESE,3.5,-,0.03,Snow,Light Snow,120,2013-12-14 02:58:00
10:50 PM,28.4,28.4,100,30.11,1.8,East,4.6,-,N/A,Snow,Light Snow,100,2013-12-14 03:50:00
10:58 PM,28.9,28.9,100,30.15,1.8,East,4.6,-,0.04,Snow,Light Snow,100,2013-12-14 03:58:00
11:03 PM,28.4,28.4,100,30.11,2.0,East,4.6,-,N/A,Snow,Light Snow,100,2013-12-14 04:03:00
11:08 PM,28.4,28.4,100,30.11,2.5,ESE,4.6,-,N/A,Snow,Light Snow,110,2013-12-14 04:08:00
11:13 PM,28.4,28.4,100,30.11,3.0,ESE,5.8,-,N/A,Snow,Light Snow,120,2013-12-14 04:13:00
11:18 PM,30.2,30.2,100,30.11,2.5,SE,5.8,-,N/A,Snow,Light Snow,130,2013-12-14 04:18:00
11:23 PM,30.2,30.2,100,30.11,2.0,SE,5.8,-,N/A,Snow,Light Snow,130,2013-12-14 04:23:00
11:28 PM,30.2,30.2,100,30.11,1.5,SE,4.6,-,N/A,Snow,Light Snow,140,2013-12-14 04:28:00
11:48 PM,30.2,30.2,100,30.11,1.8,SE,4.6,-,N/A,Snow,Light Snow,130,2013-12-14 04:48:00
11:58 PM,30.4,30.4,100,30.15,1.8,SE,5.8,-,0.02,Snow,Light Snow,130,2013-12-14 04:58:00